Wetbulb
71.66 72.50 71.78 70.53 69.26 68.29 67.58 67.43 68.10 68.06 68.30 68.57 69.16 69.40 68.41 65.06 62.20 64.51 64.66 66.29 70.54 70.74 70.22 70.06 70.45 68.92 68.04 68.08 68.02 67.11 67.88 69.36 69.36
72.16 72.04 70.74 69.90 69.20 68.06 67.76 67.83 68.05 68.06 67.92 67.96 68.42 68.91 67.57 64.90 64.20 65.20 65.72 67.66 69.74 69.36 68.86 67.67 68.54 69.66 69.45 69.30 68.57 68.06 69.11 69.30 69.14
72.50 71.09 70.09 69.65 69.01 68.08 67.95 68.10 67.94 67.72 67.56 67.62 68.21 68.42 66.94 64.07 63.14 63.65 64.42 68.95 68.42 67.78 67.14 66.29 66.02 67.38 67.52 68.65 69.43 69.10 68.79 68.78 68.77
71.68 70.61 69.77 69.30 68.81 68.10 67.66 67.92 67.87 67.57 67.15 66.85 66.57 67.59 66.19 61.81 62.25 63.47 63.35 68.19 67.08 66.34 65.93 65.63 65.26 65.01 65.78 65.88 65.92 67.90 68.04 67.99 67.74
70.95 69.89 69.94 69.45 68.84 68.42 67.74 67.51 67.76 67.81 67.46 66.44 65.83 65.58 66.05 61.04 61.84 62.30 62.91 67.18 66.26 65.64 65.00 64.67 64.12 63.62 63.95 64.37 64.20 63.46 65.44 65.57 65.63
66.89 67.04 68.19 69.28 69.29 68.30 67.70 67.61 68.00 67.84 65.73 65.54 65.42 63.60 61.70 60.61 61.48 61.93 65.58 66.45 65.80 64.78 63.98 63.48 63.14 62.32 62.26 62.49 62.85 62.90 62.54 62.67 62.80
66.08 65.13 66.99 68.67 68.73 68.67 68.21 68.30 68.63 65.87 60.43 59.19 62.58 58.91 59.71 60.30 60.86 61.67 66.15 66.93 66.07 64.71 63.79 62.95 62.29 61.63 61.24 61.07 61.37 61.35 61.27 61.32 61.55
63.12 62.37 63.10 63.36 64.31 64.46 65.64 64.67 63.21 60.41 58.90 57.79 57.32 58.37 57.38 57.34 60.35 62.24 65.62 67.56 66.71 65.62 63.92 62.77 61.95 61.40 61.00 60.86 60.50 60.41 60.00 60.30 60.23
60.75 60.75 60.69 61.13 61.89 62.01 62.40 62.30 61.55 59.88 58.31 56.34 55.83 56.67 56.95 56.35 59.48 60.41 63.97 67.36 67.05 66.47 64.75 63.08 62.12 61.60 61.28 60.94 60.46 60.06 59.65 59.75 59.63
59.71 59.96 59.93 60.14 60.52 60.87 60.80 61.16 60.77 59.37 58.05 56.44 56.17 55.93 55.11 54.21 58.09 59.34 61.55 65.03 67.14 66.64 66.05 64.26 63.06 62.25 61.82 61.22 60.43 59.84 59.83 59.50 59.34
58.96 59.15 59.64 59.65 60.12 60.35 60.44 60.38 60.38 59.57 58.23 57.93 56.11 54.62 54.82 54.22 54.67 58.50 59.21 63.09 65.54 66.71 66.04 65.39 64.18 63.27 62.65 61.97 61.14 60.16 60.25 59.72 59.33
59.43 59.14 59.27 59.68 59.61 59.56 59.68 59.65 59.74 59.16 59.22 58.14 57.94 55.50 53.52 53.75 52.65 55.24 58.05 59.41 62.62 65.05 66.10 65.40 64.87 63.91 63.43 63.06 62.21 60.73 60.26 60.14 59.55
60.44 59.64 59.46 59.84 59.17 58.89 58.53 58.76 58.34 58.68 58.55 58.15 58.72 56.82 53.63 52.18 51.77 51.89 56.30 57.78 59.14 61.99 65.45 65.97 65.19 64.55 63.89 63.58 63.05 61.97 60.51 59.92 59.65
61.59 60.28 60.10 59.72 59.14 58.62 58.61 58.05 58.16 57.20 57.84 58.34 58.35 57.01 55.19 53.61 52.73 49.89 51.75 55.97 58.08 58.07 60.66 63.42 63.99 64.74 64.18 63.96 63.63 63.03 61.42 59.84 59.18
62.17 61.22 59.82 58.62 58.54 58.16 57.58 58.24 57.17 58.44 57.92 57.88 57.44 55.66 55.20 53.18 51.40 52.03 50.15 53.03 55.98 56.92 57.08 57.41 59.86 62.04 64.20 63.71 63.57 63.32 62.79 60.56 58.96
61.84 61.48 59.86 58.73 58.06 58.68 57.93 57.82 57.57 56.58 54.99 55.12 55.48 53.01 52.30 51.77 52.27 53.00 49.31 49.24 53.90 55.72 56.45 56.12 56.70 57.22 62.30 63.46 63.28 62.99 62.96 62.37 60.10
63.06 61.21 60.52 59.77 59.22 58.57 58.04 56.87 55.47 55.28 55.16 56.14 52.37 53.04 54.30 49.13 49.94 48.35 47.79 47.17 48.96 54.18 54.76 54.63 54.41 54.54 55.10 57.85 61.77 62.58 62.33 62.68 62.10
62.65 62.87 62.32 61.06 60.07 59.83 58.74 57.46 56.98 56.87 55.38 56.00 56.91 52.37 50.40 49.19 50.27 48.91 46.59 45.97 44.84 49.01 53.70 53.75 54.30 55.05 55.82 56.07 57.63 59.93 61.50 61.18 61.77
57.10 59.76 61.55 61.83 60.05 59.13 58.93 58.29 57.12 57.03 56.82 52.86 54.44 53.02 52.39 51.45 51.24 49.68 47.62 47.66 45.86 46.16 49.32 52.27 54.00 54.58 54.41 54.51 54.79 56.62 58.93 59.64 60.34
52.54 53.19 55.04 60.30 60.30 58.97 58.69 57.78 56.64 56.05 55.69 53.74 53.68 54.58 53.61 51.06 50.12 51.24 49.87 48.18 47.87 47.04 46.50 47.33 49.87 51.91 51.61 51.68 52.72 55.71 57.64 59.97 60.23
MSLP
1019.25 1019.38 1019.68 1020.03 1020.11 1020.33 1020.63 1020.80 1020.84 1020.89 1020.92 1020.99 1021.06 1021.14 1021.24 1021.46 1021.57 1021.54 1021.42 1021.31 1021.09 1021.18 1021.18 1021.24 1021.17 1021.33 1021.38 1021.34 1021.29 1021.36 1021.30 1021.22 1021.19
1019.44 1019.69 1019.96 1020.19 1020.35 1020.62 1020.87 1020.92 1021.07 1021.18 1021.20 1021.29 1021.36 1021.48 1021.63 1021.82 1021.81 1021.74 1021.65 1021.46 1021.30 1021.45 1021.50 1021.68 1021.54 1021.56 1021.59 1021.47 1021.46 1021.50 1021.54 1021.52 1021.60
1019.75 1020.05 1020.28 1020.47 1020.67 1020.81 1020.99 1021.11 1021.26 1021.37 1021.50 1021.63 1021.65 1021.81 1022.00 1022.19 1022.24 1022.17 1022.02 1021.75 1021.72 1021.76 1021.75 1021.82 1021.85 1021.81 1021.83 1021.78 1021.76 1021.76 1021.90 1021.94 1021.90
1019.91 1020.29 1020.53 1020.72 1020.89 1021.05 1021.15 1021.28 1021.48 1021.58 1021.76 1021.93 1022.05 1022.13 1022.23 1022.38 1022.44 1022.35 1022.33 1022.10 1022.07 1022.11 1022.13 1022.09 1022.15 1022.20 1022.20 1022.09 1022.00 1022.08 1022.18 1022.22 1022.21
1020.13 1020.32 1020.58 1020.82 1020.99 1021.02 1021.21 1021.30 1021.48 1021.72 1022.01 1022.23 1022.31 1022.38 1022.48 1022.58 1022.63 1022.66 1022.54 1022.30 1022.31 1022.42 1022.49 1022.56 1022.54 1022.62 1022.54 1022.50 1022.43 1022.43 1022.33 1022.53 1022.63
1020.60 1020.77 1020.93 1021.05 1021.13 1021.20 1021.28 1021.32 1021.43 1021.66 1022.02 1022.20 1022.32 1022.44 1022.61 1022.69 1022.77 1022.77 1022.68 1022.49 1022.47 1022.59 1022.74 1022.80 1022.82 1022.83 1022.90 1022.83 1022.82 1022.83 1022.89 1022.91 1022.98
1020.80 1020.99 1021.10 1021.18 1021.22 1021.32 1021.34 1021.41 1021.54 1021.82 1022.32 1022.58 1022.51 1022.67 1022.65 1022.73 1022.82 1022.80 1022.73 1022.56 1022.53 1022.68 1022.78 1022.83 1022.93 1022.96 1023.03 1023.08 1023.08 1023.15 1023.16 1023.11 1023.16
1020.92 1021.17 1021.29 1021.37 1021.32 1021.43 1021.45 1021.64 1021.78 1022.01 1022.30 1022.65 1022.74 1022.78 1022.82 1022.82 1022.73 1022.70 1022.65 1022.54 1022.41 1022.64 1022.79 1022.87 1022.94 1023.07 1023.19 1023.28 1023.39 1023.42 1023.40 1023.33 1023.34
1021.03 1021.25 1021.32 1021.44 1021.38 1021.46 1021.63 1021.74 1021.86 1022.00 1022.20 1022.49 1022.75 1022.85 1022.84 1022.79 1022.67 1022.64 1022.52 1022.48 1022.37 1022.40 1022.68 1022.82 1022.95 1023.10 1023.15 1023.28 1023.36 1023.46 1023.58 1023.58 1023.57
1020.91 1021.09 1021.20 1021.26 1021.30 1021.41 1021.61 1021.78 1021.87 1021.96 1022.13 1022.38 1022.58 1022.71 1022.65 1022.62 1022.51 1022.41 1022.35 1022.32 1022.30 1022.24 1022.39 1022.57 1022.75 1022.92 1023.09 1023.25 1023.45 1023.60 1023.65 1023.67 1023.69
1020.76 1020.87 1020.98 1021.08 1021.08 1021.21 1021.47 1021.61 1021.72 1021.84 1022.02 1022.18 1022.20 1022.31 1022.38 1022.34 1022.32 1022.22 1022.17 1022.09 1022.12 1022.17 1022.19 1022.31 1022.50 1022.70 1022.89 1023.08 1023.28 1023.45 1023.59 1023.69 1023.75
1020.28 1020.59 1020.71 1020.63 1020.78 1021.03 1021.30 1021.46 1021.58 1021.71 1021.75 1021.92 1021.85 1021.90 1021.85 1022.01 1022.01 1022.00 1021.93 1021.83 1021.82 1021.88 1021.81 1021.85 1022.06 1022.29 1022.45 1022.63 1022.93 1023.31 1023.40 1023.47 1023.65
1019.98 1020.24 1020.31 1020.23 1020.52 1020.81 1021.06 1021.17 1021.49 1021.59 1021.64 1021.67 1021.54 1021.47 1021.49 1021.49 1021.50 1021.59 1021.60 1021.69 1021.64 1021.52 1021.62 1021.62 1021.68 1021.87 1022.06 1022.20 1022.32 1022.54 1023.04 1023.36 1023.58
1019.43 1019.60 1019.71 1019.95 1020.30 1020.57 1020.76 1020.98 1021.25 1021.32 1021.39 1021.41 1021.22 1021.22 1021.16 1021.02 1020.95 1021.18 1021.26 1021.28 1021.37 1021.41 1021.39 1021.41 1021.51 1021.58 1021.70 1021.79 1021.91 1022.13 1022.59 1023.05 1023.32
1018.94 1019.14 1019.30 1019.63 1020.04 1020.32 1020.53 1020.70 1020.84 1020.95 1021.01 1021.07 1020.93 1020.90 1020.75 1020.68 1020.73 1020.49 1020.53 1020.64 1020.69 1020.81 1020.93 1021.10 1021.27 1021.37 1021.40 1021.52 1021.69 1021.85 1022.12 1022.59 1023.09
1018.61 1018.78 1019.01 1019.21 1019.57 1019.62 1019.83 1020.26 1020.48 1020.65 1020.70 1021.13 1020.69 1020.39 1020.16 1020.22 1020.04 1019.75 1019.87 1020.05 1020.05 1020.22 1020.45 1020.75 1020.98 1021.03 1021.11 1021.13 1021.21 1021.31 1021.41 1021.87 1022.33
1018.07 1018.24 1018.49 1018.70 1019.07 1019.29 1019.45 1019.81 1020.12 1020.17 1020.21 1020.45 1020.70 1020.30 1019.84 1019.76 1019.36 1019.53 1019.74 1019.80 1020.02 1020.09 1020.27 1020.45 1020.58 1020.73 1020.85 1020.79 1020.77 1020.94 1021.11 1021.22 1021.56
1017.88 1017.90 1018.00 1018.13 1018.49 1018.70 1018.87 1019.12 1019.46 1019.71 1019.75 1019.89 1020.02 1020.04 1019.98 1019.92 1019.43 1019.35 1019.58 1019.75 1019.89 1019.88 1019.88 1019.88 1019.85 1019.82 1020.15 1020.30 1020.47 1020.64 1020.87 1020.97 1021.37
1018.04 1017.91 1017.82 1017.79 1017.92 1018.24 1018.33 1018.60 1018.86 1019.23 1019.46 1019.78 1019.70 1019.67 1019.87 1020.01 1019.60 1019.45 1019.33 1019.38 1019.53 1019.53 1019.49 1019.74 1019.58 1019.57 1019.71 1019.77 1019.82 1020.13 1020.42 1020.64 1020.58
1018.59 1018.43 1018.20 1017.92 1017.76 1017.89 1017.98 1018.20 1018.43 1018.63 1018.89 1019.11 1019.22 1019.34 1019.58 1019.83 1020.07 1019.52 1019.57 1019.63 1019.40 1019.56 1019.55 1019.42 1019.38 1019.19 1019.28 1019.39 1019.60 1019.72 1019.99 1020.15 1020.50
Wind_Speed
8 10 11 10 10 10 9 9 9 8 7 8 7 6 7 6 3 2 1 1 12 11 12 13 11 6 4 3 5 4 4 7 9
8 13 11 10 9 8 7 8 7 7 7 7 7 7 8 5 4 3 1 2 9 9 10 8 9 9 9 6 5 4 7 11 12
12 11 10 8 7 6 6 6 6 5 6 7 6 7 6 4 4 4 3 7 6 6 6 6 5 7 6 8 10 11 9 9 12
11 10 8 6 6 4 4 4 4 4 5 5 5 4 5 3 2 2 2 4 5 5 5 5 5 4 5 6 5 9 10 11 12
8 9 7 7 6 6 5 3 3 4 6 5 4 2 4 2 1 1 1 2 3 4 4 4 4 4 5 5 4 1 6 8 9
4 3 3 4 4 4 3 2 1 3 4 2 1 2 2 2 1 1 5 2 2 2 2 2 2 3 3 3 4 4 3 3 3
3 3 3 3 3 2 2 2 1 3 2 2 3 1 2 2 2 2 6 5 3 2 2 2 2 2 2 2 3 3 3 4 4
2 1 1 1 2 1 1 2 1 1 0 0 2 3 2 2 3 4 7 8 5 4 4 4 3 3 2 2 2 2 2 3 4
3 2 3 3 2 2 2 2 3 3 2 2 3 4 3 3 2 4 8 9 8 7 6 6 5 4 4 4 3 3 3 3 3
3 3 3 3 3 3 3 3 3 4 3 4 4 5 5 5 3 3 7 9 10 10 9 8 8 7 6 5 5 4 4 4 4
4 4 4 4 4 3 3 4 4 4 3 5 5 6 5 5 5 4 4 10 10 12 12 10 10 9 8 8 7 7 6 6 5
5 4 4 4 4 4 3 4 3 3 3 6 5 5 6 5 6 5 4 5 10 12 16 13 12 12 11 11 10 9 9 9 8
5 4 5 4 4 4 4 3 3 4 4 4 6 4 4 6 6 5 5 4 5 9 14 14 15 14 14 13 13 12 11 10 10
6 5 4 4 4 4 4 4 4 4 4 5 5 5 5 6 4 6 6 6 6 4 8 12 12 13 16 16 15 14 13 12 11
6 4 5 4 4 4 3 6 4 5 4 3 5 4 5 5 5 8 5 7 8 7 7 4 6 12 14 17 16 16 15 15 13
5 4 4 5 6 8 6 4 6 5 3 1 4 4 6 6 6 6 6 6 6 7 6 5 4 4 14 16 18 18 18 17 17
5 5 5 6 5 5 5 6 3 4 5 4 1 3 2 4 6 3 4 6 3 5 5 6 6 5 5 8 16 17 19 19 19
5 5 5 5 5 6 5 5 7 6 3 6 4 1 4 2 1 2 3 4 2 4 5 7 9 9 8 8 9 12 14 17 17
5 4 4 5 3 5 5 4 5 4 6 1 5 2 2 2 3 2 2 3 5 5 3 5 6 7 6 10 10 8 11 17 19
5 5 5 4 3 4 5 4 5 4 3 4 3 3 2 3 4 5 3 2 3 3 3 4 4 5 5 4 7 13 17 22 23
Wind_Direction
136 136 121 119 108 106 112 118 111 98 80 69 70 79 91 88 87 120 214 35 92 93 73 51 62 127 78 71 89 72 53 75 88
137 128 126 124 114 118 123 119 112 95 81 63 66 90 88 78 72 114 69 119 84 67 60 52 51 73 59 78 99 73 92 85 83
122 127 129 124 126 130 130 119 108 87 76 73 69 105 96 62 58 54 40 64 69 69 78 78 74 28 27 62 73 87 80 76 77
125 130 132 136 142 139 127 110 89 62 58 64 74 120 119 99 69 63 36 66 69 72 77 79 74 48 28 27 20 58 62 57 65
130 136 151 163 165 157 150 129 86 46 30 24 27 343 147 103 62 22 273 100 87 82 78 73 73 53 51 55 47 329 33 42 48
107 126 174 168 160 168 173 172 137 98 78 37 81 85 160 165 202 225 269 191 133 108 94 89 90 82 76 80 90 93 99 91 80
157 185 203 206 192 202 217 238 284 37 71 349 341 3 195 211 231 233 254 235 195 181 179 172 165 154 143 128 121 110 113 117 111
178 209 264 259 251 258 303 319 9 295 330 154 280 268 253 253 238 241 247 246 240 211 214 217 212 201 197 179 161 144 145 136 133
207 211 223 223 225 226 234 239 251 263 266 262 248 259 258 273 246 242 252 249 252 227 223 224 227 227 218 218 206 194 181 165 163
203 220 219 222 207 212 233 237 243 253 264 268 241 244 245 251 244 232 249 249 251 246 228 226 228 229 227 228 229 226 204 196 191
207 215 221 228 209 209 221 224 231 245 239 268 254 245 243 244 247 236 241 248 245 249 240 236 233 233 232 230 221 225 218 216 209
207 212 218 223 209 214 226 241 239 246 240 252 258 255 245 237 243 239 237 244 242 240 239 239 234 231 231 230 225 226 229 216 213
205 209 224 216 199 200 213 214 242 241 227 244 249 249 250 242 237 227 233 235 236 238 238 240 237 231 231 233 230 217 221 230 223
204 210 220 202 203 209 212 218 210 233 239 242 249 245 251 248 246 235 230 229 235 229 238 235 238 233 232 235 237 232 216 222 226
202 211 211 186 200 220 207 227 205 236 247 242 259 252 246 245 239 245 220 215 218 216 222 227 236 237 231 234 239 243 226 214 220
207 219 209 196 202 225 213 215 227 248 195 313 253 258 238 237 237 235 232 240 230 216 214 211 223 230 237 232 235 238 241 221 215
214 213 217 204 210 221 209 187 206 227 177 207 187 275 272 245 240 240 244 253 222 223 212 212 217 221 223 232 232 233 239 244 220
248 235 225 213 197 227 212 195 205 236 205 209 217 263 235 358 277 262 261 271 241 226 213 210 212 215 226 225 232 235 239 243 264
3 314 275 249 210 221 223 198 209 188 234 205 242 272 113 251 299 325 246 231 250 239 217 237 234 231 220 219 204 207 226 229 230
24 17 350 293 246 233 221 209 203 195 187 186 176 214 190 195 214 278 271 324 270 270 241 233 239 225 218 196 202 213 223 230 229